sat.trackr.live / text

‹ back to catalog

STARLINK-11138 [DTC]

NORAD 59949 · 2024-107E

PAYLOAD ACTIVE UNKNOWN

§ Identity

Operator
Country
US
Launch date
2024-06-05
Launch site
AFETR
Launch vehicle
Mass (kg)
RCS (m²)

Purposes: comms

External: N2YO · Heavens-Above · Gunter

§ Orbital elements

Epoch: 2026-09-21T12:27:53.551584Z

Period
91.74 min
Inclination
53.1607°
Eccentricity
0.0001212
Mean motion
15.69693143 rev/d
Perigee alt
359.0 km
Apogee alt
360.6 km
Semi-major
6,737.9 km
B*
-1.2437e-5
RAAN
5.8621°
Arg perigee
84.6876°
Mean anomaly
275.4280°
Rev number
13,296

§ Raw data

STARLINK-11138 [DTC]1 59949U 24107E   26264.51936981 -.00002094  00000+0 -12437-4 0  99992 59949  53.1607   5.8621 0001212  84.6876 275.4280 15.69693143132963

JSON: /api/v1/satellites/59949 · /tle

For live sub-satellite position, see the globe view (requires WebGL).

§ Visibility from observer

Set your observer location to see the next 7 days of passes ≥ 10°. The values pass through the URL so the page stays shareable.

No JS? Fill the form by hand. The geolocation button needs JavaScript.